LOT505G EFTU-EPWA

Flight info

Callsign LOT505G
Flight time N/A
Altitude 34000
Route EMPOM DCT KOSKA DCT PENOR/N0465F350 N133 GRUDA N191 SORIX
Aircraft B738/M-SDE2E3FGHIRWXY/LB1

Departure

Time 2026-04-25 14:07
Airport Turku Airport (EFTU)

Arrival

Time N/A
Airport Warsaw Chopin Airport (EPWA)
Time Latitude Longitude Altitude Speed Heading
2026-04-25 13:59 60.51184 22.27333 171 ft 0 kts 149°
2026-04-25 14:01 60.51190 22.27326 171 ft 2 kts 149°
2026-04-25 14:01 60.51199 22.27315 171 ft 1 kts 149°
2026-04-25 14:02 60.51208 22.27292 171 ft 2 kts 95°
2026-04-25 14:02 60.51203 22.27260 172 ft 2 kts 41°
2026-04-25 14:02 60.51194 22.27250 172 ft 1 kts
2026-04-25 14:02 60.51191 22.27250 172 ft 1 kts
2026-04-25 14:03 60.51188 22.27249 172 ft 0 kts
2026-04-25 14:04 60.51194 22.27251 172 ft 3 kts
2026-04-25 14:04 60.51237 22.27255 171 ft 9 kts
2026-04-25 14:05 60.51311 22.27319 171 ft 14 kts 33°
2026-04-25 14:05 60.51346 22.27529 169 ft 19 kts 85°
2026-04-25 14:05 60.51357 22.27773 165 ft 16 kts 84°
2026-04-25 14:05 60.51367 22.27994 162 ft 14 kts 85°
2026-04-25 14:06 60.51377 22.28209 158 ft 14 kts 86°
2026-04-25 14:06 60.51385 22.28402 155 ft 13 kts 84°
2026-04-25 14:06 60.51428 22.28534 154 ft 11 kts
2026-04-25 14:06 60.51493 22.28471 154 ft 9 kts 301°
2026-04-25 14:07 60.51504 22.28347 155 ft 10 kts 266°
2026-04-25 14:07 60.51480 22.27796 164 ft 85 kts 265°
2026-04-25 14:07 60.51397 22.25963 188 ft 170 kts 265°
2026-04-25 14:07 60.51275 22.23391 1014 ft 194 kts 266°
2026-04-25 14:08 60.51161 22.20686 2191 ft 199 kts 268°
2026-04-25 14:08 60.51040 22.17817 2862 ft 215 kts 266°
2026-04-25 14:08 60.50893 22.14759 3680 ft 225 kts 263°
2026-04-25 14:08 60.50368 22.11799 4516 ft 235 kts 235°
2026-04-25 14:09 60.49066 22.09765 5447 ft 245 kts 211°
2026-04-25 14:09 60.47599 22.07869 6181 ft 260 kts 218°
2026-04-25 14:09 60.46143 22.05728 7223 ft 264 kts 218°
2026-04-25 14:09 60.45155 22.04318 7913 ft 267 kts 217°
2026-04-25 14:10 60.43127 22.01448 9334 ft 273 kts 217°
2026-04-25 14:10 60.41578 21.99258 10305 ft 281 kts 216°
2026-04-25 14:10 60.39920 21.96920 10829 ft 306 kts 216°
2026-04-25 14:10 60.38104 21.94366 11397 ft 330 kts 215°
2026-04-25 14:11 60.36166 21.91645 11965 ft 354 kts 215°
2026-04-25 14:11 60.34106 21.88757 12613 ft 374 kts 215°
2026-04-25 14:11 60.31962 21.85757 13643 ft 383 kts 215°
2026-04-25 14:11 60.29764 21.82687 14733 ft 390 kts 216°
2026-04-25 14:12 60.27536 21.79629 15583 ft 395 kts 215°
2026-04-25 14:12 60.25275 21.76484 16642 ft 401 kts 216°
2026-04-25 14:12 60.22987 21.73283 17669 ft 407 kts 216°
2026-04-25 14:12 60.20630 21.70212 18644 ft 414 kts 212°
2026-04-25 14:13 60.18053 21.67493 19604 ft 420 kts 208°
2026-04-25 14:13 60.15446 21.64877 20510 ft 426 kts 209°
2026-04-25 14:13 60.12817 21.62171 21380 ft 432 kts 209°
2026-04-25 14:13 60.10126 21.59385 22224 ft 438 kts 209°
2026-04-25 14:14 60.07433 21.56611 23030 ft 443 kts 210°
2026-04-25 14:14 60.04688 21.53793 23812 ft 449 kts 210°
2026-04-25 14:14 60.01905 21.50939 24564 ft 454 kts 210°
2026-04-25 14:14 59.99105 21.48071 25274 ft 459 kts 210°
2026-04-25 14:15 59.96281 21.45189 26401 ft 454 kts 210°
2026-04-25 14:15 59.95374 21.44263 26745 ft 452 kts 210°
2026-04-25 14:15 59.90736 21.39541 28212 ft 451 kts 210°
2026-04-25 14:15 59.88013 21.36773 29044 ft 449 kts 210°
2026-04-25 14:16 59.85262 21.33983 29839 ft 448 kts 210°
2026-04-25 14:16 59.82511 21.31199 30607 ft 447 kts 210°
2026-04-25 14:16 59.79754 21.28413 31338 ft 446 kts 210°
2026-04-25 14:16 59.77040 21.25676 32032 ft 446 kts 210°
2026-04-25 14:17 59.74294 21.22911 32708 ft 445 kts 210°
2026-04-25 14:17 59.71546 21.20149 33342 ft 445 kts 210°
2026-04-25 14:17 59.68751 21.17343 33562 ft 451 kts 210°
2026-04-25 14:18 59.63230 21.11824 33584 ft 444 kts 210°
2026-04-25 14:18 59.57753 21.06366 33588 ft 441 kts 210°
2026-04-25 14:19 59.52318 21.00969 33587 ft 440 kts 210°
2026-04-25 14:19 59.46855 20.95565 33588 ft 438 kts 210°
2026-04-25 14:20 59.41438 20.90225 33587 ft 436 kts 210°
2026-04-25 14:20 59.36045 20.84927 33588 ft 435 kts 210°
2026-04-25 14:21 59.30658 20.79655 33587 ft 435 kts 210°
2026-04-25 14:21 59.25260 20.74390 33588 ft 436 kts 210°
2026-04-25 14:22 59.19842 20.69126 33588 ft 436 kts 210°
2026-04-25 14:22 59.14511 20.63613 33588 ft 434 kts 213°
2026-04-25 14:23 59.09317 20.57742 33588 ft 434 kts 213°
2026-04-25 14:23 59.04105 20.51998 33588 ft 434 kts 213°
2026-04-25 14:24 58.98835 20.46200 33588 ft 436 kts 213°
2026-04-25 14:24 58.93578 20.40447 33588 ft 439 kts 213°
2026-04-25 14:25 58.88296 20.34691 33587 ft 442 kts 212°
2026-04-25 14:25 58.82944 20.28881 33587 ft 443 kts 212°
2026-04-25 14:26 58.77586 20.23088 33588 ft 442 kts 212°
2026-04-25 14:26 58.72249 20.17336 33587 ft 442 kts 212°
2026-04-25 14:27 58.66884 20.11576 33587 ft 442 kts 212°
2026-04-25 14:27 58.61546 20.05866 33587 ft 443 kts 212°
2026-04-25 14:28 58.56187 20.00153 33587 ft 442 kts 212°
2026-04-25 14:28 58.50809 19.94440 33585 ft 442 kts 212°
2026-04-25 14:29 58.45449 19.88767 33587 ft 442 kts 212°
2026-04-25 14:29 58.40086 19.83110 33587 ft 443 kts 212°
2026-04-25 14:30 58.34707 19.77456 33587 ft 443 kts 212°
2026-04-25 14:30 58.26627 19.69001 33587 ft 443 kts 212°
2026-04-25 14:31 58.21258 19.63407 33588 ft 443 kts 212°
2026-04-25 14:31 58.15870 19.57814 33588 ft 443 kts 212°
2026-04-25 14:32 58.10472 19.52229 33588 ft 443 kts 212°
2026-04-25 14:32 58.05112 19.46703 33588 ft 443 kts 212°
2026-04-25 14:33 57.99701 19.41144 33588 ft 443 kts 212°
2026-04-25 14:33 57.94302 19.35615 33588 ft 443 kts 212°
2026-04-25 14:34 57.88929 19.30134 33588 ft 443 kts 211°
2026-04-25 14:34 57.83531 19.24645 33587 ft 443 kts 211°
2026-04-25 14:35 57.78147 19.19190 33587 ft 443 kts 211°
2026-04-25 14:35 57.72731 19.13722 33587 ft 441 kts 211°
2026-04-25 14:36 57.67381 19.08339 33587 ft 438 kts 211°
2026-04-25 14:36 57.62028 19.02970 33587 ft 436 kts 211°
2026-04-25 14:37 57.56699 18.97644 33587 ft 434 kts 211°
2026-04-25 14:37 57.51407 18.92372 33587 ft 433 kts 211°
2026-04-25 14:38 57.46148 18.87150 33587 ft 433 kts 211°
2026-04-25 14:38 57.40823 18.81880 33587 ft 433 kts 211°
2026-04-25 14:39 57.35536 18.76665 33587 ft 433 kts 211°
2026-04-25 14:39 57.30246 18.71464 33587 ft 433 kts 211°
2026-04-25 14:40 57.24921 18.66246 33588 ft 433 kts 211°